Time,TemperatureF,DewpointF,PressureIn,WindDirection,WindDirectionDegrees,WindSpeedMPH,WindSpeedGustMPH,Humidity,HourlyPrecipIn,Conditions,Clouds,dailyrainin,SoftwareType,DateUTC
2013-01-19 00:02:00,18.9,1.6,-100.00,North,-999,-999.0,-999.0,52,-99.99,,,-99.99,,2013-01-19 05:02:00,
2013-01-19 00:04:00,18.9,1.7,-100.00,North,-999,-999.0,-999.0,52,-99.99,,,-99.99,,2013-01-19 05:04:00,
2013-01-19 00:07:00,19.0,1.8,-100.00,North,-999,-999.0,-999.0,52,-99.99,,,-99.99,,2013-01-19 05:07:00,
2013-01-19 00:12:00,19.0,2.0,-100.00,North,-999,-999.0,-999.0,52,-99.99,,,-99.99,,2013-01-19 05:12:00,
2013-01-19 00:17:00,19.4,2.5,-100.00,North,-999,-999.0,-999.0,53,-99.99,,,-99.99,,2013-01-19 05:17:00,
2013-01-19 00:22:00,19.6,2.6,-100.00,North,-999,-999.0,-999.0,52,-99.99,,,-99.99,,2013-01-19 05:22:00,
2013-01-19 00:27:00,19.8,2.8,-100.00,North,-999,-999.0,-999.0,53,-99.99,,,-99.99,,2013-01-19 05:27:00,
2013-01-19 00:32:00,19.9,3.1,-100.00,North,-999,-999.0,-999.0,53,-99.99,,,-99.99,,2013-01-19 05:32:00,
2013-01-19 00:37:00,20.1,3.2,-100.00,North,-999,-999.0,-999.0,52,-99.99,,,-99.99,,2013-01-19 05:37:00,
2013-01-19 00:42:00,20.5,3.5,-100.00,North,-999,-999.0,-999.0,52,-99.99,,,-99.99,,2013-01-19 05:42:00,
2013-01-19 00:47:00,20.8,3.5,-100.00,North,-999,-999.0,-999.0,51,-99.99,,,-99.99,,2013-01-19 05:47:00,
2013-01-19 00:52:00,21.2,4.5,-100.00,North,-999,-999.0,-999.0,53,-99.99,,,-99.99,,2013-01-19 05:52:00,
2013-01-19 00:57:00,21.6,4.1,-100.00,North,-999,-999.0,-999.0,51,-99.99,,,-99.99,,2013-01-19 05:57:00,
2013-01-19 01:02:00,21.7,4.3,-100.00,North,-999,-999.0,-999.0,51,-99.99,,,-99.99,,2013-01-19 06:02:00,
2013-01-19 01:07:00,21.9,4.5,-100.00,North,-999,-999.0,-999.0,51,-99.99,,,-99.99,,2013-01-19 06:07:00,
2013-01-19 01:12:00,22.3,4.5,-100.00,North,-999,-999.0,-999.0,50,-99.99,,,-99.99,,2013-01-19 06:12:00,
2013-01-19 01:17:00,22.6,-99.9,-100.00,North,-999,-999.0,-999.0,49,-99.99,,,-99.99,,2013-01-19 06:17:00,
2013-01-19 01:22:00,22.8,-99.9,-100.00,North,-999,-999.0,-999.0,50,-99.99,,,-99.99,,2013-01-19 06:22:00,
2013-01-19 01:27:00,23.0,-99.9,-100.00,North,-999,-999.0,-999.0,49,-99.99,,,-99.99,,2013-01-19 06:27:00,
2013-01-19 01:32:00,23.0,-99.9,-100.00,North,-999,-999.0,-999.0,49,-99.99,,,-99.99,,2013-01-19 06:32:00,
2013-01-19 01:37:00,23.2,5.6,-100.00,North,-999,-999.0,-999.0,51,-99.99,,,-99.99,,2013-01-19 06:37:00,
2013-01-19 01:42:00,23.4,5.6,-100.00,North,-999,-999.0,-999.0,50,-99.99,,,-99.99,,2013-01-19 06:42:00,
2013-01-19 01:47:00,23.4,5.4,-100.00,North,-999,-999.0,-999.0,50,-99.99,,,-99.99,,2013-01-19 06:47:00,
2013-01-19 01:52:00,23.4,5.6,-100.00,North,-999,-999.0,-999.0,50,-99.99,,,-99.99,,2013-01-19 06:52:00,
2013-01-19 01:59:00,23.4,5.8,-100.00,North,-999,-999.0,-999.0,51,-99.99,,,-99.99,,2013-01-19 06:59:00,
2013-01-19 02:04:00,23.5,5.9,-100.00,North,-999,-999.0,-999.0,50,-99.99,,,-99.99,,2013-01-19 07:04:00,
2013-01-19 02:09:00,23.5,5.8,-100.00,North,-999,-999.0,-999.0,50,-99.99,,,-99.99,,2013-01-19 07:09:00,
2013-01-19 02:14:00,23.7,6.2,-100.00,North,-999,-999.0,-999.0,51,-99.99,,,-99.99,,2013-01-19 07:14:00,
2013-01-19 02:19:00,23.7,6.4,-100.00,North,-999,-999.0,-999.0,51,-99.99,,,-99.99,,2013-01-19 07:19:00,
2013-01-19 02:24:00,23.9,6.9,-100.00,North,-999,-999.0,-999.0,52,-99.99,,,-99.99,,2013-01-19 07:24:00,
2013-01-19 02:29:00,23.9,6.7,-100.00,North,-999,-999.0,-999.0,52,-99.99,,,-99.99,,2013-01-19 07:29:00,
2013-01-19 02:34:00,24.1,6.5,-100.00,North,-999,-999.0,-999.0,51,-99.99,,,-99.99,,2013-01-19 07:34:00,
2013-01-19 02:39:00,24.1,6.7,-100.00,North,-999,-999.0,-999.0,51,-99.99,,,-99.99,,2013-01-19 07:39:00,
2013-01-19 02:44:00,24.3,7.0,-100.00,North,-999,-999.0,-999.0,52,-99.99,,,-99.99,,2013-01-19 07:44:00,
2013-01-19 02:49:00,24.4,7.4,-100.00,North,-999,-999.0,-999.0,52,-99.99,,,-99.99,,2013-01-19 07:49:00,
2013-01-19 02:54:00,24.8,7.3,-100.00,North,-999,-999.0,-999.0,51,-99.99,,,-99.99,,2013-01-19 07:54:00,
2013-01-19 02:59:00,24.8,7.4,-100.00,North,-999,-999.0,-999.0,51,-99.99,,,-99.99,,2013-01-19 07:59:00,
2013-01-19 03:04:00,25.0,8.0,-100.00,North,-999,-999.0,-999.0,52,-99.99,,,-99.99,,2013-01-19 08:04:00,
2013-01-19 03:09:00,25.2,8.1,-100.00,North,-999,-999.0,-999.0,52,-99.99,,,-99.99,,2013-01-19 08:09:00,
2013-01-19 03:14:00,25.0,8.3,-100.00,North,-999,-999.0,-999.0,53,-99.99,,,-99.99,,2013-01-19 08:14:00,
2013-01-19 03:19:00,25.0,8.6,-100.00,North,-999,-999.0,-999.0,54,-99.99,,,-99.99,,2013-01-19 08:19:00,
2013-01-19 03:24:00,25.2,8.2,-100.00,North,-999,-999.0,-999.0,52,-99.99,,,-99.99,,2013-01-19 08:24:00,
2013-01-19 03:29:00,25.2,8.5,-100.00,North,-999,-999.0,-999.0,53,-99.99,,,-99.99,,2013-01-19 08:29:00,
2013-01-19 03:34:00,25.2,8.5,-100.00,North,-999,-999.0,-999.0,53,-99.99,,,-99.99,,2013-01-19 08:34:00,
2013-01-19 03:39:00,25.2,8.7,-100.00,North,-999,-999.0,-999.0,54,-99.99,,,-99.99,,2013-01-19 08:39:00,
2013-01-19 03:44:00,25.2,8.7,-100.00,North,-999,-999.0,-999.0,54,-99.99,,,-99.99,,2013-01-19 08:44:00,
2013-01-19 03:49:00,25.0,8.9,-100.00,North,-999,-999.0,-999.0,55,-99.99,,,-99.99,,2013-01-19 08:49:00,
2013-01-19 03:57:00,25.2,8.7,-100.00,North,-999,-999.0,-999.0,54,-99.99,,,-99.99,,2013-01-19 08:57:00,
2013-01-19 04:02:00,25.2,8.9,-100.00,North,-999,-999.0,-999.0,54,-99.99,,,-99.99,,2013-01-19 09:02:00,
2013-01-19 04:07:00,25.2,8.7,-100.00,North,-999,-999.0,-999.0,54,-99.99,,,-99.99,,2013-01-19 09:07:00,
2013-01-19 04:12:00,25.2,8.6,-100.00,North,-999,-999.0,-999.0,54,-99.99,,,-99.99,,2013-01-19 09:12:00,
2013-01-19 04:17:00,25.2,8.6,-100.00,North,-999,-999.0,-999.0,54,-99.99,,,-99.99,,2013-01-19 09:17:00,
2013-01-19 04:24:00,25.2,8.9,-100.00,North,-999,-999.0,-999.0,54,-99.99,,,-99.99,,2013-01-19 09:24:00,
2013-01-19 04:29:00,25.2,9.0,-100.00,North,-999,-999.0,-999.0,55,-99.99,,,-99.99,,2013-01-19 09:29:00,
2013-01-19 04:34:00,25.2,9.0,-100.00,North,-999,-999.0,-999.0,55,-99.99,,,-99.99,,2013-01-19 09:34:00,
2013-01-19 04:40:00,25.5,9.5,-100.00,North,-999,-999.0,-999.0,55,-99.99,,,-99.99,,2013-01-19 09:40:00,
2013-01-19 04:47:00,25.7,9.9,-100.00,North,-999,-999.0,-999.0,56,-99.99,,,-99.99,,2013-01-19 09:47:00,
2013-01-19 04:54:00,25.9,9.6,-100.00,North,-999,-999.0,-999.0,54,-99.99,,,-99.99,,2013-01-19 09:54:00,
2013-01-19 04:59:00,26.1,9.6,-100.00,North,-999,-999.0,-999.0,54,-99.99,,,-99.99,,2013-01-19 09:59:00,
2013-01-19 05:04:00,26.1,10.0,-100.00,North,-999,-999.0,-999.0,55,-99.99,,,-99.99,,2013-01-19 10:04:00,
2013-01-19 05:10:00,26.2,9.8,-100.00,North,-999,-999.0,-999.0,54,-99.99,,,-99.99,,2013-01-19 10:10:00,
2013-01-19 05:15:00,26.2,9.8,-100.00,North,-999,-999.0,-999.0,54,-99.99,,,-99.99,,2013-01-19 10:15:00,
2013-01-19 05:20:00,26.4,10.2,-100.00,North,-999,-999.0,-999.0,54,-99.99,,,-99.99,,2013-01-19 10:20:00,
2013-01-19 05:25:00,26.6,10.2,-100.00,North,-999,-999.0,-999.0,54,-99.99,,,-99.99,,2013-01-19 10:25:00,
2013-01-19 05:30:00,26.6,10.1,-100.00,North,-999,-999.0,-999.0,54,-99.99,,,-99.99,,2013-01-19 10:30:00,
2013-01-19 05:35:00,26.6,10.3,-100.00,North,-999,-999.0,-999.0,54,-99.99,,,-99.99,,2013-01-19 10:35:00,
2013-01-19 05:40:00,26.8,10.4,-100.00,North,-999,-999.0,-999.0,54,-99.99,,,-99.99,,2013-01-19 10:40:00,
2013-01-19 05:45:00,26.8,10.6,-100.00,North,-999,-999.0,-999.0,55,-99.99,,,-99.99,,2013-01-19 10:45:00,
2013-01-19 05:52:00,27.0,10.8,-100.00,North,-999,-999.0,-999.0,55,-99.99,,,-99.99,,2013-01-19 10:52:00,
2013-01-19 05:57:00,27.0,10.8,-100.00,North,-999,-999.0,-999.0,55,-99.99,,,-99.99,,2013-01-19 10:57:00,
2013-01-19 06:05:00,27.0,11.2,-100.00,North,-999,-999.0,-999.0,56,-99.99,,,-99.99,,2013-01-19 11:05:00,
2013-01-19 06:10:00,26.8,11.8,-100.00,North,-999,-999.0,-999.0,58,-99.99,,,-99.99,,2013-01-19 11:10:00,
2013-01-19 07:48:00,28.4,14.2,-100.00,North,-999,-999.0,-999.0,60,-99.99,,,-99.99,,2013-01-19 12:48:00,
2013-01-19 07:50:00,28.6,14.4,-100.00,North,-999,-999.0,-999.0,60,-99.99,,,-99.99,,2013-01-19 12:50:00,
2013-01-19 07:52:00,28.8,14.5,-100.00,North,-999,-999.0,-999.0,60,-99.99,,,-99.99,,2013-01-19 12:52:00,
2013-01-19 07:55:00,28.8,15.0,-100.00,North,-999,-999.0,-999.0,61,-99.99,,,-99.99,,2013-01-19 12:55:00,
2013-01-19 08:00:00,29.1,14.9,-100.00,North,-999,-999.0,-999.0,60,-99.99,,,-99.99,,2013-01-19 13:00:00,
2013-01-19 08:05:00,29.3,15.4,-100.00,North,-999,-999.0,-999.0,61,-99.99,,,-99.99,,2013-01-19 13:05:00,
2013-01-19 08:10:00,29.5,15.5,-100.00,North,-999,-999.0,-999.0,61,-99.99,,,-99.99,,2013-01-19 13:10:00,
2013-01-19 08:15:00,29.7,16.0,-100.00,North,-999,-999.0,-999.0,62,-99.99,,,-99.99,,2013-01-19 13:15:00,
2013-01-19 08:20:00,29.8,16.0,-100.00,North,-999,-999.0,-999.0,61,-99.99,,,-99.99,,2013-01-19 13:20:00,
2013-01-19 08:25:00,29.8,16.3,-100.00,North,-999,-999.0,-999.0,62,-99.99,,,-99.99,,2013-01-19 13:25:00,
2013-01-19 08:30:00,30.0,16.2,-100.00,North,-999,-999.0,-999.0,61,-99.99,,,-99.99,,2013-01-19 13:30:00,
2013-01-19 08:35:00,30.0,16.8,-100.00,North,-999,-999.0,-999.0,63,-99.99,,,-99.99,,2013-01-19 13:35:00,
2013-01-19 08:40:00,30.2,16.7,-100.00,North,-999,-999.0,-999.0,62,-99.99,,,-99.99,,2013-01-19 13:40:00,
2013-01-19 08:45:00,30.2,16.4,-100.00,North,-999,-999.0,-999.0,61,-99.99,,,-99.99,,2013-01-19 13:45:00,
2013-01-19 08:50:00,30.4,17.5,-100.00,North,-999,-999.0,-999.0,64,-99.99,,,-99.99,,2013-01-19 13:50:00,
2013-01-19 08:55:00,30.6,16.9,-100.00,North,-999,-999.0,-999.0,62,-99.99,,,-99.99,,2013-01-19 13:55:00,
2013-01-19 09:00:00,30.6,17.3,-100.00,North,-999,-999.0,-999.0,63,-99.99,,,-99.99,,2013-01-19 14:00:00,
2013-01-19 09:05:00,30.7,17.3,-100.00,North,-999,-999.0,-999.0,62,-99.99,,,-99.99,,2013-01-19 14:05:00,
2013-01-19 09:10:00,30.9,17.5,-100.00,North,-999,-999.0,-999.0,62,-99.99,,,-99.99,,2013-01-19 14:10:00,
2013-01-19 09:15:00,31.1,17.7,-100.00,North,-999,-999.0,-999.0,62,-99.99,,,-99.99,,2013-01-19 14:15:00,
2013-01-19 09:20:00,31.1,17.3,-100.00,North,-999,-999.0,-999.0,61,-99.99,,,-99.99,,2013-01-19 14:20:00,
2013-01-19 09:25:00,31.3,17.7,-100.00,North,-999,-999.0,-999.0,62,-99.99,,,-99.99,,2013-01-19 14:25:00,
2013-01-19 09:30:00,31.3,17.3,-100.00,North,-999,-999.0,-999.0,61,-99.99,,,-99.99,,2013-01-19 14:30:00,
2013-01-19 09:35:00,31.5,18.0,-100.00,North,-999,-999.0,-999.0,62,-99.99,,,-99.99,,2013-01-19 14:35:00,
2013-01-19 09:40:00,31.6,18.3,-100.00,North,-999,-999.0,-999.0,62,-99.99,,,-99.99,,2013-01-19 14:40:00,
2013-01-19 09:45:00,31.8,18.0,-100.00,North,-999,-999.0,-999.0,61,-99.99,,,-99.99,,2013-01-19 14:45:00,
2013-01-19 09:50:00,32.0,18.1,-100.00,North,-999,-999.0,-999.0,61,-99.99,,,-99.99,,2013-01-19 14:50:00,
2013-01-19 09:55:00,32.2,18.1,-100.00,North,-999,-999.0,-999.0,60,-99.99,,,-99.99,,2013-01-19 14:55:00,
2013-01-19 10:00:00,32.4,18.8,-100.00,North,-999,-999.0,-999.0,62,-99.99,,,-99.99,,2013-01-19 15:00:00,
2013-01-19 10:05:00,32.5,18.8,-100.00,North,-999,-999.0,-999.0,61,-99.99,,,-99.99,,2013-01-19 15:05:00,
2013-01-19 10:10:00,32.7,18.5,-100.00,North,-999,-999.0,-999.0,60,-99.99,,,-99.99,,2013-01-19 15:10:00,
2013-01-19 10:15:00,33.1,18.8,-100.00,North,-999,-999.0,-999.0,60,-99.99,,,-99.99,,2013-01-19 15:15:00,
2013-01-19 10:20:00,33.1,18.5,-100.00,North,-999,-999.0,-999.0,59,-99.99,,,-99.99,,2013-01-19 15:20:00,
2013-01-19 10:25:00,33.4,18.8,-100.00,North,-999,-999.0,-999.0,59,-99.99,,,-99.99,,2013-01-19 15:25:00,
2013-01-19 10:30:00,33.8,18.8,-100.00,North,-999,-999.0,-999.0,58,-99.99,,,-99.99,,2013-01-19 15:30:00,
2013-01-19 10:37:00,34.0,19.1,-100.00,North,-999,-999.0,-999.0,58,-99.99,,,-99.99,,2013-01-19 15:37:00,
2013-01-19 10:42:00,34.2,19.1,-100.00,North,-999,-999.0,-999.0,58,-99.99,,,-99.99,,2013-01-19 15:42:00,
2013-01-19 10:47:00,34.3,19.0,-100.00,North,-999,-999.0,-999.0,57,-99.99,,,-99.99,,2013-01-19 15:47:00,
2013-01-19 10:52:00,34.7,19.6,-100.00,North,-999,-999.0,-999.0,58,-99.99,,,-99.99,,2013-01-19 15:52:00,
2013-01-19 10:57:00,35.1,20.2,-100.00,North,-999,-999.0,-999.0,58,-99.99,,,-99.99,,2013-01-19 15:57:00,
2013-01-19 11:02:00,35.1,19.3,-100.00,North,-999,-999.0,-999.0,56,-99.99,,,-99.99,,2013-01-19 16:02:00,
2013-01-19 11:07:00,35.4,19.9,-100.00,North,-999,-999.0,-999.0,56,-99.99,,,-99.99,,2013-01-19 16:07:00,
2013-01-19 11:13:00,35.6,19.9,-100.00,North,-999,-999.0,-999.0,56,-99.99,,,-99.99,,2013-01-19 16:13:00,
2013-01-19 11:18:00,35.6,19.8,-100.00,North,-999,-999.0,-999.0,56,-99.99,,,-99.99,,2013-01-19 16:18:00,
2013-01-19 11:25:00,35.8,19.9,-100.00,North,-999,-999.0,-999.0,56,-99.99,,,-99.99,,2013-01-19 16:25:00,
2013-01-19 11:33:00,35.8,19.9,-100.00,North,-999,-999.0,-999.0,56,-99.99,,,-99.99,,2013-01-19 16:33:00,
2013-01-19 11:38:00,36.0,20.6,-100.00,North,-999,-999.0,-999.0,57,-99.99,,,-99.99,,2013-01-19 16:38:00,
2013-01-19 11:43:00,36.0,19.9,-100.00,North,-999,-999.0,-999.0,55,-99.99,,,-99.99,,2013-01-19 16:43:00,
2013-01-19 11:48:00,36.1,19.9,-100.00,North,-999,-999.0,-999.0,55,-99.99,,,-99.99,,2013-01-19 16:48:00,
2013-01-19 11:53:00,36.1,20.2,-100.00,North,-999,-999.0,-999.0,55,-99.99,,,-99.99,,2013-01-19 16:53:00,
2013-01-19 11:58:00,36.5,20.4,-100.00,North,-999,-999.0,-999.0,55,-99.99,,,-99.99,,2013-01-19 16:58:00,
2013-01-19 12:03:00,36.7,20.4,-100.00,North,-999,-999.0,-999.0,54,-99.99,,,-99.99,,2013-01-19 17:03:00,
2013-01-19 12:08:00,36.9,20.5,-100.00,North,-999,-999.0,-999.0,54,-99.99,,,-99.99,,2013-01-19 17:08:00,
2013-01-19 12:13:00,37.0,20.7,-100.00,North,-999,-999.0,-999.0,54,-99.99,,,-99.99,,2013-01-19 17:13:00,
2013-01-19 12:20:00,37.6,21.4,-100.00,North,-999,-999.0,-999.0,55,-99.99,,,-99.99,,2013-01-19 17:20:00,
2013-01-19 12:25:00,37.8,21.4,-100.00,North,-999,-999.0,-999.0,54,-99.99,,,-99.99,,2013-01-19 17:25:00,
2013-01-19 12:30:00,37.9,21.6,-100.00,North,-999,-999.0,-999.0,54,-99.99,,,-99.99,,2013-01-19 17:30:00,
2013-01-19 12:38:00,38.3,21.1,-100.00,North,-999,-999.0,-999.0,52,-99.99,,,-99.99,,2013-01-19 17:38:00,
2013-01-19 12:43:00,38.3,21.2,-100.00,North,-999,-999.0,-999.0,52,-99.99,,,-99.99,,2013-01-19 17:43:00,
2013-01-19 12:48:00,38.5,21.5,-100.00,North,-999,-999.0,-999.0,52,-99.99,,,-99.99,,2013-01-19 17:48:00,
2013-01-19 12:55:00,38.8,21.7,-100.00,North,-999,-999.0,-999.0,52,-99.99,,,-99.99,,2013-01-19 17:55:00,
2013-01-19 13:00:00,39.2,22.0,-100.00,North,-999,-999.0,-999.0,52,-99.99,,,-99.99,,2013-01-19 18:00:00,
2013-01-19 13:05:00,39.2,21.7,-100.00,North,-999,-999.0,-999.0,51,-99.99,,,-99.99,,2013-01-19 18:05:00,
2013-01-19 13:13:00,39.4,22.1,-100.00,North,-999,-999.0,-999.0,52,-99.99,,,-99.99,,2013-01-19 18:13:00,
2013-01-19 13:18:00,39.4,22.1,-100.00,North,-999,-999.0,-999.0,51,-99.99,,,-99.99,,2013-01-19 18:18:00,
2013-01-19 13:23:00,39.7,22.3,-100.00,North,-999,-999.0,-999.0,51,-99.99,,,-99.99,,2013-01-19 18:23:00,
2013-01-19 13:28:00,39.7,22.0,-100.00,North,-999,-999.0,-999.0,50,-99.99,,,-99.99,,2013-01-19 18:28:00,
2013-01-19 13:33:00,39.7,22.2,-100.00,North,-999,-999.0,-999.0,51,-99.99,,,-99.99,,2013-01-19 18:33:00,
2013-01-19 13:38:00,39.7,22.1,-100.00,North,-999,-999.0,-999.0,50,-99.99,,,-99.99,,2013-01-19 18:38:00,
2013-01-19 13:45:00,39.7,21.9,-100.00,North,-999,-999.0,-999.0,50,-99.99,,,-99.99,,2013-01-19 18:45:00,
2013-01-19 13:50:00,39.7,-99.9,-100.00,North,-999,-999.0,-999.0,49,-99.99,,,-99.99,,2013-01-19 18:50:00,
2013-01-19 13:55:00,39.7,22.1,-100.00,North,-999,-999.0,-999.0,50,-99.99,,,-99.99,,2013-01-19 18:55:00,
2013-01-19 14:01:00,39.9,22.0,-100.00,North,-999,-999.0,-999.0,50,-99.99,,,-99.99,,2013-01-19 19:01:00,
2013-01-19 14:08:00,39.9,22.1,-100.00,North,-999,-999.0,-999.0,50,-99.99,,,-99.99,,2013-01-19 19:08:00,
2013-01-19 14:13:00,39.9,-99.9,-100.00,North,-999,-999.0,-999.0,50,-99.99,,,-99.99,,2013-01-19 19:13:00,
2013-01-19 14:20:00,39.9,22.0,-100.00,North,-999,-999.0,-999.0,50,-99.99,,,-99.99,,2013-01-19 19:20:00,
2013-01-19 14:25:00,40.1,22.3,-100.00,North,-999,-999.0,-999.0,50,-99.99,,,-99.99,,2013-01-19 19:25:00,
2013-01-19 14:33:00,39.7,21.9,-100.00,North,-999,-999.0,-999.0,50,-99.99,,,-99.99,,2013-01-19 19:33:00,
2013-01-19 14:43:00,39.9,22.1,-100.00,North,-999,-999.0,-999.0,50,-99.99,,,-99.99,,2013-01-19 19:43:00,
2013-01-19 14:50:00,40.1,22.3,-100.00,North,-999,-999.0,-999.0,50,-99.99,,,-99.99,,2013-01-19 19:50:00,
2013-01-19 14:58:00,40.1,22.4,-100.00,North,-999,-999.0,-999.0,50,-99.99,,,-99.99,,2013-01-19 19:58:00,
2013-01-19 15:05:00,40.1,22.4,-100.00,North,-999,-999.0,-999.0,50,-99.99,,,-99.99,,2013-01-19 20:05:00,
2013-01-19 15:10:00,40.1,-99.9,-100.00,North,-999,-999.0,-999.0,49,-99.99,,,-99.99,,2013-01-19 20:10:00,
2013-01-19 15:15:00,40.1,22.8,-100.00,North,-999,-999.0,-999.0,52,-99.99,,,-99.99,,2013-01-19 20:15:00,
2013-01-19 15:23:00,40.1,22.2,-100.00,North,-999,-999.0,-999.0,50,-99.99,,,-99.99,,2013-01-19 20:23:00,
2013-01-19 15:30:00,40.1,22.4,-100.00,North,-999,-999.0,-999.0,50,-99.99,,,-99.99,,2013-01-19 20:30:00,
2013-01-19 15:38:00,39.7,22.2,-100.00,North,-999,-999.0,-999.0,51,-99.99,,,-99.99,,2013-01-19 20:38:00,
2013-01-19 15:45:00,39.6,22.4,-100.00,North,-999,-999.0,-999.0,52,-99.99,,,-99.99,,2013-01-19 20:45:00,
2013-01-19 15:50:00,39.6,22.3,-100.00,North,-999,-999.0,-999.0,52,-99.99,,,-99.99,,2013-01-19 20:50:00,
2013-01-19 16:03:00,39.2,22.1,-100.00,North,-999,-999.0,-999.0,52,-99.99,,,-99.99,,2013-01-19 21:03:00,
2013-01-19 16:08:00,39.2,22.2,-100.00,North,-999,-999.0,-999.0,52,-99.99,,,-99.99,,2013-01-19 21:08:00,
2013-01-19 16:15:00,38.8,22.4,-100.00,North,-999,-999.0,-999.0,54,-99.99,,,-99.99,,2013-01-19 21:15:00,
2013-01-19 16:23:00,38.3,22.6,-100.00,North,-999,-999.0,-999.0,56,-99.99,,,-99.99,,2013-01-19 21:23:00,
2013-01-19 16:30:00,38.3,22.9,-100.00,North,-999,-999.0,-999.0,57,-99.99,,,-99.99,,2013-01-19 21:30:00,
2013-01-19 16:36:00,38.1,22.6,-100.00,North,-999,-999.0,-999.0,56,-99.99,,,-99.99,,2013-01-19 21:36:00,
2013-01-19 16:41:00,38.1,22.4,-100.00,North,-999,-999.0,-999.0,56,-99.99,,,-99.99,,2013-01-19 21:41:00,
2013-01-19 16:49:00,37.9,22.6,-100.00,North,-999,-999.0,-999.0,57,-99.99,,,-99.99,,2013-01-19 21:49:00,
2013-01-19 17:00:00,37.4,22.6,-100.00,North,-999,-999.0,-999.0,58,-99.99,,,-99.99,,2013-01-19 22:00:00,
2013-01-19 17:08:00,37.2,22.7,-100.00,North,-999,-999.0,-999.0,59,-99.99,,,-99.99,,2013-01-19 22:08:00,
2013-01-19 17:14:00,37.4,22.4,-100.00,North,-999,-999.0,-999.0,58,-99.99,,,-99.99,,2013-01-19 22:14:00,
2013-01-19 17:23:00,37.0,22.5,-100.00,North,-999,-999.0,-999.0,59,-99.99,,,-99.99,,2013-01-19 22:23:00,
2013-01-19 17:31:00,37.0,22.5,-100.00,North,-999,-999.0,-999.0,59,-99.99,,,-99.99,,2013-01-19 22:31:00,
2013-01-19 17:36:00,36.9,22.4,-100.00,North,-999,-999.0,-999.0,59,-99.99,,,-99.99,,2013-01-19 22:36:00,
2013-01-19 17:43:00,36.9,22.1,-100.00,North,-999,-999.0,-999.0,59,-99.99,,,-99.99,,2013-01-19 22:43:00,
2013-01-19 17:48:00,37.0,22.2,-100.00,North,-999,-999.0,-999.0,58,-99.99,,,-99.99,,2013-01-19 22:48:00,
2013-01-19 17:56:00,36.9,22.2,-100.00,North,-999,-999.0,-999.0,59,-99.99,,,-99.99,,2013-01-19 22:56:00,
2013-01-19 18:01:00,36.9,22.4,-100.00,North,-999,-999.0,-999.0,59,-99.99,,,-99.99,,2013-01-19 23:01:00,
2013-01-19 18:06:00,36.7,21.9,-100.00,North,-999,-999.0,-999.0,59,-99.99,,,-99.99,,2013-01-19 23:06:00,
2013-01-19 18:16:00,36.7,22.1,-100.00,North,-999,-999.0,-999.0,59,-99.99,,,-99.99,,2013-01-19 23:16:00,
2013-01-19 18:21:00,36.5,22.0,-100.00,North,-999,-999.0,-999.0,59,-99.99,,,-99.99,,2013-01-19 23:21:00,
2013-01-19 18:26:00,36.7,22.2,-100.00,North,-999,-999.0,-999.0,59,-99.99,,,-99.99,,2013-01-19 23:26:00,
2013-01-19 18:31:00,36.5,22.3,-100.00,North,-999,-999.0,-999.0,60,-99.99,,,-99.99,,2013-01-19 23:31:00,
2013-01-19 18:36:00,36.7,21.8,-100.00,North,-999,-999.0,-999.0,58,-99.99,,,-99.99,,2013-01-19 23:36:00,
2013-01-19 18:41:00,36.7,22.0,-100.00,North,-999,-999.0,-999.0,59,-99.99,,,-99.99,,2013-01-19 23:41:00,
2013-01-19 18:46:00,36.7,22.0,-100.00,North,-999,-999.0,-999.0,59,-99.99,,,-99.99,,2013-01-19 23:46:00,
2013-01-19 18:53:00,36.5,22.1,-100.00,North,-999,-999.0,-999.0,60,-99.99,,,-99.99,,2013-01-19 23:53:00,
2013-01-19 19:01:00,36.7,21.7,-100.00,North,-999,-999.0,-999.0,58,-99.99,,,-99.99,,2013-01-20 00:01:00,
2013-01-19 19:06:00,36.7,21.8,-100.00,North,-999,-999.0,-999.0,58,-99.99,,,-99.99,,2013-01-20 00:06:00,
2013-01-19 19:13:00,36.7,22.2,-100.00,North,-999,-999.0,-999.0,59,-99.99,,,-99.99,,2013-01-20 00:13:00,
2013-01-19 19:18:00,36.7,21.6,-100.00,North,-999,-999.0,-999.0,58,-99.99,,,-99.99,,2013-01-20 00:18:00,
2013-01-19 19:23:00,36.9,21.6,-100.00,North,-999,-999.0,-999.0,57,-99.99,,,-99.99,,2013-01-20 00:23:00,
2013-01-19 19:28:00,37.0,22.1,-100.00,North,-999,-999.0,-999.0,58,-99.99,,,-99.99,,2013-01-20 00:28:00,
2013-01-19 19:38:00,37.2,21.7,-100.00,North,-999,-999.0,-999.0,56,-99.99,,,-99.99,,2013-01-20 00:38:00,
2013-01-19 19:48:00,37.2,22.0,-100.00,North,-999,-999.0,-999.0,57,-99.99,,,-99.99,,2013-01-20 00:48:00,
2013-01-19 19:53:00,37.0,22.0,-100.00,North,-999,-999.0,-999.0,58,-99.99,,,-99.99,,2013-01-20 00:53:00,
2013-01-19 19:58:00,36.9,22.1,-100.00,North,-999,-999.0,-999.0,58,-99.99,,,-99.99,,2013-01-20 00:58:00,
2013-01-19 20:08:00,36.7,22.2,-100.00,North,-999,-999.0,-999.0,59,-99.99,,,-99.99,,2013-01-20 01:08:00,
2013-01-19 20:13:00,36.5,22.4,-100.00,North,-999,-999.0,-999.0,60,-99.99,,,-99.99,,2013-01-20 01:13:00,
2013-01-19 20:18:00,36.3,23.4,-100.00,North,-999,-999.0,-999.0,64,-99.99,,,-99.99,,2013-01-20 01:18:00,
2013-01-19 20:26:00,36.0,22.0,-100.00,North,-999,-999.0,-999.0,61,-99.99,,,-99.99,,2013-01-20 01:26:00,
2013-01-19 20:31:00,35.8,23.1,-100.00,North,-999,-999.0,-999.0,64,-99.99,,,-99.99,,2013-01-20 01:31:00,
2013-01-19 20:38:00,35.6,22.1,-100.00,North,-999,-999.0,-999.0,62,-99.99,,,-99.99,,2013-01-20 01:38:00,
2013-01-19 20:43:00,35.6,23.3,-100.00,North,-999,-999.0,-999.0,65,-99.99,,,-99.99,,2013-01-20 01:43:00,
2013-01-19 20:48:00,35.4,23.2,-100.00,North,-999,-999.0,-999.0,66,-99.99,,,-99.99,,2013-01-20 01:48:00,
2013-01-19 20:54:00,35.1,23.3,-100.00,North,-999,-999.0,-999.0,67,-99.99,,,-99.99,,2013-01-20 01:54:00,
2013-01-19 21:01:00,34.7,23.4,-100.00,North,-999,-999.0,-999.0,68,-99.99,,,-99.99,,2013-01-20 02:01:00,
2013-01-19 21:08:00,34.5,24.5,-100.00,North,-999,-999.0,-999.0,72,-99.99,,,-99.99,,2013-01-20 02:08:00,
2013-01-19 21:18:00,34.3,26.6,-100.00,North,-999,-999.0,-999.0,78,-99.99,,,-99.99,,2013-01-20 02:18:00,
2013-01-19 21:26:00,34.2,26.4,-100.00,North,-999,-999.0,-999.0,78,-99.99,,,-99.99,,2013-01-20 02:26:00,
2013-01-19 21:31:00,34.0,26.1,-100.00,North,-999,-999.0,-999.0,78,-99.99,,,-99.99,,2013-01-20 02:31:00,
2013-01-19 21:38:00,34.0,26.2,-100.00,North,-999,-999.0,-999.0,78,-99.99,,,-99.99,,2013-01-20 02:38:00,
2013-01-19 21:43:00,34.0,27.3,-100.00,North,-999,-999.0,-999.0,81,-99.99,,,-99.99,,2013-01-20 02:43:00,
2013-01-19 21:48:00,34.2,27.5,-100.00,North,-999,-999.0,-999.0,81,-99.99,,,-99.99,,2013-01-20 02:48:00,
2013-01-19 21:53:00,34.3,28.7,-100.00,North,-999,-999.0,-999.0,84,-99.99,,,-99.99,,2013-01-20 02:53:00,
2013-01-19 21:58:00,34.5,29.1,-100.00,North,-999,-999.0,-999.0,85,-99.99,,,-99.99,,2013-01-20 02:58:00,
2013-01-19 22:04:00,34.7,29.7,-100.00,North,-999,-999.0,-999.0,86,-99.99,,,-99.99,,2013-01-20 03:04:00,
2013-01-19 22:11:00,35.1,29.7,-100.00,North,-999,-999.0,-999.0,85,-99.99,,,-99.99,,2013-01-20 03:11:00,
2013-01-19 22:19:00,35.4,29.9,-100.00,North,-999,-999.0,-999.0,84,-99.99,,,-99.99,,2013-01-20 03:19:00,
2013-01-19 22:28:00,35.6,30.7,-100.00,North,-999,-999.0,-999.0,86,-99.99,,,-99.99,,2013-01-20 03:28:00,
2013-01-19 22:36:00,35.8,30.5,-100.00,North,-999,-999.0,-999.0,85,-99.99,,,-99.99,,2013-01-20 03:36:00,
2013-01-19 22:43:00,36.1,30.7,-100.00,North,-999,-999.0,-999.0,84,-99.99,,,-99.99,,2013-01-20 03:43:00,
2013-01-19 22:48:00,36.3,30.4,-100.00,North,-999,-999.0,-999.0,83,-99.99,,,-99.99,,2013-01-20 03:48:00,
2013-01-19 22:56:00,36.3,30.6,-100.00,North,-999,-999.0,-999.0,84,-99.99,,,-99.99,,2013-01-20 03:56:00,
2013-01-19 23:03:00,36.7,30.3,-100.00,North,-999,-999.0,-999.0,82,-99.99,,,-99.99,,2013-01-20 04:03:00,
2013-01-19 23:08:00,36.9,30.4,-100.00,North,-999,-999.0,-999.0,82,-99.99,,,-99.99,,2013-01-20 04:08:00,
2013-01-19 23:17:00,37.0,30.7,-100.00,North,-999,-999.0,-999.0,82,-99.99,,,-99.99,,2013-01-20 04:17:00,
2013-01-19 23:23:00,37.2,30.3,-100.00,North,-999,-999.0,-999.0,80,-99.99,,,-99.99,,2013-01-20 04:23:00,
2013-01-19 23:28:00,37.0,30.0,-100.00,North,-999,-999.0,-999.0,80,-99.99,,,-99.99,,2013-01-20 04:28:00,
2013-01-19 23:33:00,37.0,29.7,-100.00,North,-999,-999.0,-999.0,79,-99.99,,,-99.99,,2013-01-20 04:33:00,
2013-01-19 23:39:00,37.2,29.3,-100.00,North,-999,-999.0,-999.0,78,-99.99,,,-99.99,,2013-01-20 04:39:00,
2013-01-19 23:47:00,37.0,29.6,-100.00,North,-999,-999.0,-999.0,79,-99.99,,,-99.99,,2013-01-20 04:47:00,
2013-01-19 23:54:00,36.9,29.5,-100.00,North,-999,-999.0,-999.0,79,-99.99,,,-99.99,,2013-01-20 04:54:00,
2013-01-19 23:59:00,36.9,29.0,-100.00,North,-999,-999.0,-999.0,78,-99.99,,,-99.99,,2013-01-20 04:59:00,